Weather History for Pampa, TX

Change the Weather History Date:

Thursday, May 10, 2012

  Actual Average Record
Temperature  
Mean Temperature 60 °F -  
Max Temperature 73 °F 75 °F 95 °F (1974)
Min Temperature 46 °F 48 °F 35 °F (1981)
Degree Days  
Heating Degree Days 6    
Growing Degree Days 10 (Base 50)    
Moisture  
Dew Point 39 °F    
Average Humidity 43    
Maximum Humidity 66    
Minimum Humidity 27    
Precipitation  
Precipitation 0.00 in - - ()
Sea Level Pressure  
Sea Level Pressure 29.94 in    
Wind  
Wind Speed 11 mph (South)    
Max Wind Speed 18 mph    
Max Gust Speed 25 mph    
Visibility 10 miles    
Events      
Averages and records for this station are not official NWS values.
T = Trace of Precipitation, MM = Missing Value Source: NWS Daily Summary

Daily Weather History Graph

Daily Weather History Graph

Search for Another Location

Airport:

Trip Planner

Search our weather history database for the weather conditions in past years. The results will help you decide how hot, cold, wet, or windy it might be!

Date:

Astronomy

May. 10, 2012 Rise Set
Actual Time 6:42 AM CDT 8:38 PM CDT
Civil Twilight 6:14 AM CDT 9:06 PM CDT
Nautical Twilight 5:40 AM CDT 9:40 PM CDT
Astronomical Twilight 5:04 AM CDT 10:17 PM CDT
Moon 12:37 AM CDT (5/10) 11:09 AM CDT (5/10)
Length of Visible Light 14h 51m
Length of Day
13h 55m
Waning Gibbous, 73% of the Moon is Illuminated
May 10
Waning Gibbous
May 12
Last Quarter
May 20
New
May 28
First Quarter
Jun 4
Full

Hourly Weather History & Observations

Time (CDT) Temp. Windchill Dew Point Humidity Pressure Visibility Wind Dir Wind Speed Gust Speed Precip Events Conditions
12:15 AM 59.0 °F - 33.8 °F 39% 30.01 in 10.0 mi SSE 9.2 mph - N/A   Clear
12:35 AM 59.0 °F - 33.8 °F 39% 30.01 in 10.0 mi SSE 9.2 mph - N/A   Clear
12:55 AM 59.0 °F - 32.0 °F 36% 30.01 in 10.0 mi SSE 11.5 mph - N/A   Clear
1:15 AM 59.0 °F - 32.0 °F 36% 30.01 in 10.0 mi South 15.0 mph 19.6 mph N/A   Clear
1:35 AM 59.0 °F - 33.8 °F 39% 30.00 in 10.0 mi South 15.0 mph - N/A   Clear
1:55 AM 59.0 °F - 33.8 °F 39% 30.00 in 10.0 mi South 15.0 mph - N/A   Clear
2:15 AM 59.0 °F - 33.8 °F 39% 30.00 in 10.0 mi South 16.1 mph - N/A   Clear
2:35 AM 59.0 °F - 35.6 °F 42% 29.99 in 10.0 mi South 15.0 mph - N/A   Clear
2:55 AM 57.2 °F - 35.6 °F 44% 29.98 in 10.0 mi South 12.7 mph - N/A   Clear
3:15 AM 55.4 °F - 35.6 °F 47% 29.97 in 10.0 mi South 12.7 mph - N/A   Clear
3:35 AM 55.4 °F - 35.6 °F 47% 29.97 in 10.0 mi South 10.4 mph - N/A   Clear
3:55 AM 53.6 °F - 35.6 °F 51% 29.96 in 10.0 mi South 10.4 mph - N/A   Clear
4:15 AM 51.8 °F - 35.6 °F 54% 29.97 in 10.0 mi South 10.4 mph - N/A   Clear
4:35 AM 50.0 °F - 35.6 °F 58% 29.97 in 10.0 mi South 11.5 mph - N/A   Clear
4:55 AM 50.0 °F - 35.6 °F 58% 29.97 in 10.0 mi South 10.4 mph - N/A   Clear
5:15 AM 50.0 °F - 35.6 °F 58% 29.97 in 10.0 mi South 8.1 mph - N/A   Clear
5:35 AM 48.2 °F - 35.6 °F 62% 29.96 in 10.0 mi South 6.9 mph - N/A   Clear
5:55 AM 46.4 °F 42.4 °F 35.6 °F 66% 29.96 in 10.0 mi South 8.1 mph - N/A   Clear
6:15 AM 46.4 °F 41.9 °F 35.6 °F 66% 29.97 in 10.0 mi South 9.2 mph - N/A   Clear
6:35 AM 46.4 °F 41.9 °F 35.6 °F 66% 29.97 in 10.0 mi South 9.2 mph - N/A   Clear
6:55 AM 46.4 °F 41.9 °F 35.6 °F 66% 29.97 in 10.0 mi South 9.2 mph - N/A   Clear
7:15 AM 48.2 °F - 37.4 °F 66% 29.97 in 10.0 mi SSW 9.2 mph - N/A   Clear
7:35 AM 51.8 °F - 39.2 °F 62% 29.98 in 10.0 mi SSW 9.2 mph - N/A   Clear
7:55 AM 55.4 °F - 41.0 °F 58% 29.99 in 10.0 mi SSW 11.5 mph - N/A   Clear
8:15 AM 55.4 °F - 41.0 °F 58% 29.99 in 10.0 mi SSW 13.8 mph - N/A   Clear
8:35 AM 60.8 °F - 44.6 °F 55% 29.99 in 10.0 mi SSW 17.3 mph 23.0 mph N/A   Clear
8:55 AM 62.6 °F - 46.4 °F 55% 29.99 in 10.0 mi SSW 15.0 mph 19.6 mph N/A   Clear
9:15 AM 64.4 °F - 46.4 °F 52% 29.99 in 10.0 mi SW 18.4 mph 21.9 mph N/A   Clear
9:35 AM 64.4 °F - 46.4 °F 52% 29.98 in 10.0 mi SSW 15.0 mph - N/A   Clear
9:55 AM 68.0 °F - 46.4 °F 46% 29.98 in 10.0 mi SW 17.3 mph 23.0 mph N/A   Clear
10:15 AM 68.0 °F - 46.4 °F 46% 29.98 in 10.0 mi SW 18.4 mph - N/A   Clear
10:35 AM 69.8 °F - 46.4 °F 43% 29.98 in 10.0 mi SSW 17.3 mph 21.9 mph N/A   Clear
10:55 AM 69.8 °F - 44.6 °F 40% 29.97 in 10.0 mi SW 16.1 mph - N/A   Clear
11:15 AM 69.8 °F - 46.4 °F 43% 29.97 in 10.0 mi SW 16.1 mph - N/A   Clear
11:35 AM 69.8 °F - 44.6 °F 40% 29.96 in 10.0 mi SW 16.1 mph - N/A   Clear
11:55 AM 69.8 °F - 44.6 °F 40% 29.96 in 10.0 mi SSW 13.8 mph 17.3 mph N/A   Clear
12:15 PM 69.8 °F - 42.8 °F 38% 29.95 in 10.0 mi SSW 11.5 mph 16.1 mph N/A   Clear
12:35 PM 71.6 °F - 42.8 °F 35% 29.94 in 10.0 mi Calm Calm - N/A   Clear
12:55 PM 71.6 °F - 42.8 °F 35% 29.94 in 10.0 mi South 15.0 mph 20.7 mph N/A   Clear
1:15 PM 73.4 °F - 41.0 °F 31% 29.94 in 10.0 mi South 4.6 mph 18.4 mph N/A   Clear
1:35 PM 71.6 °F - 41.0 °F 33% 29.92 in 10.0 mi Calm Calm - N/A   Clear
1:55 PM 73.4 °F - 37.4 °F 27% 29.92 in 10.0 mi South 15.0 mph 18.4 mph N/A   Scattered Clouds
2:15 PM 73.4 °F - 41.0 °F 31% 29.91 in 10.0 mi SSE 11.5 mph 18.4 mph N/A   Scattered Clouds
2:35 PM 73.4 °F - 41.0 °F 31% 29.91 in 10.0 mi SSE 13.8 mph 19.6 mph N/A   Clear
2:55 PM 71.6 °F - 39.2 °F 31% 29.90 in 10.0 mi South 13.8 mph 20.7 mph N/A   Scattered Clouds
3:15 PM 73.4 °F - 41.0 °F 31% 29.90 in 10.0 mi SSE 11.5 mph - N/A   Scattered Clouds
3:35 PM 71.6 °F - 41.0 °F 33% 29.90 in 10.0 mi SSE 12.7 mph 25.3 mph N/A   Scattered Clouds
3:55 PM 73.4 °F - 41.0 °F 31% 29.90 in 10.0 mi SSE 17.3 mph 21.9 mph N/A   Scattered Clouds
4:15 PM 71.6 °F - 39.2 °F 31% 29.90 in 10.0 mi SE 13.8 mph 23.0 mph N/A   Clear
4:35 PM 71.6 °F - 35.6 °F 27% 29.89 in 10.0 mi SE 13.8 mph 19.6 mph N/A   Clear
4:55 PM 71.6 °F - 37.4 °F 29% 29.89 in 10.0 mi SE 13.8 mph 21.9 mph N/A   Clear
5:15 PM 71.6 °F - 37.4 °F 29% 29.89 in 10.0 mi SSE 10.4 mph - N/A   Clear
5:35 PM 71.6 °F - 37.4 °F 29% 29.89 in 10.0 mi South 16.1 mph - N/A   Clear
5:55 PM 71.6 °F - 37.4 °F 29% 29.89 in 10.0 mi SSE 17.3 mph 20.7 mph N/A   Clear
6:15 PM 71.6 °F - 37.4 °F 29% 29.89 in 10.0 mi South 15.0 mph 23.0 mph N/A   Clear
6:35 PM 69.8 °F - 35.6 °F 28% 29.89 in 10.0 mi SSE 17.3 mph - N/A   Clear
6:55 PM 69.8 °F - 35.6 °F 28% 29.89 in 10.0 mi SSE 11.5 mph 17.3 mph N/A   Clear
7:15 PM 69.8 °F - 35.6 °F 28% 29.89 in 10.0 mi SSE 10.4 mph - N/A   Clear
7:35 PM 68.0 °F - 35.6 °F 30% 29.89 in 10.0 mi SE 12.7 mph 17.3 mph N/A   Clear
7:55 PM 68.0 °F - 33.8 °F 28% 29.89 in 10.0 mi SSE 12.7 mph 19.6 mph N/A   Clear
8:15 PM 64.4 °F - 33.8 °F 32% 29.89 in 10.0 mi SSE 9.2 mph - N/A   Clear
8:35 PM 62.6 °F - 33.8 °F 34% 29.89 in 10.0 mi South 9.2 mph - N/A   Clear
8:55 PM 60.8 °F - 37.4 °F 42% 29.90 in 10.0 mi South 6.9 mph - N/A   Clear
9:15 PM 59.0 °F - 37.4 °F 45% 29.91 in 10.0 mi South 6.9 mph - N/A   Clear
9:35 PM 59.0 °F - 39.2 °F 48% 29.91 in 10.0 mi South 5.8 mph - N/A   Clear
9:55 PM 59.0 °F - 41.0 °F 51% 29.92 in 10.0 mi Calm Calm - N/A   Clear
10:15 PM 59.0 °F - 42.8 °F 55% 29.92 in 10.0 mi Calm Calm - N/A   Clear
10:35 PM 59.0 °F - 42.8 °F 55% 29.93 in 10.0 mi Calm Calm - N/A   Clear
10:55 PM 59.0 °F - 42.8 °F 55% 29.92 in 10.0 mi Calm Calm - N/A   Clear
11:15 PM 59.0 °F - 42.8 °F 55% 29.93 in 10.0 mi Calm Calm - N/A   Clear
11:35 PM 59.0 °F - 42.8 °F 55% 29.93 in 10.0 mi Calm Calm - N/A   Clear
11:55 PM 59.0 °F - 42.8 °F 55% 29.93 in 10.0 mi Calm Calm - N/A   Clear